[[{"header":{"parameterUnit":"m.s-1","parameterCategory":1,"la1":30.2991,"la2":30.254,"lo1":-89.0895,"lo2":-89.0444,"dy":0.0017,"dx":0.0017,"nx":28,"ny":28,"refTime":"2025-01-25T09:00:00:Z","depth":0,"parameterNumber":2,"parameterNumberName":"U-component_of_WINDS"},"data":[0,0,0,0,0,0,0,0,0,0,0,0,0,0,0,0,0,0,0,0,0,0,0,0,0,0,0,0,0,0,0,0,0,0,0,0,0,0,0,0,0,0,0,0,0,0,0,0,0,0,0,0,0,0,0,0,0,0,-0.7093,-0.7094,0,-0.7161,-0.7162,-0.7163,-0.7202,-0.7202,-0.7203,-0.7203,-0.7275,-0.7277,-0.7279,0,0,0,0,0,0,0,0,0,0,0,0,0,-0.6999,-0.7,-0.7093,-0.7094,-0.7095,-0.7161,-0.7162,-0.7163,-0.7202,-0.7202,-0.7203,-0.7203,-0.7274,-0.7277,-0.7279,0,0,0,0,0,0,0,0,0,0,0,0,0,-0.7051,-0.7001,-0.7093,-0.7122,-0.7126,-0.7161,-0.7162,-0.7163,-0.7202,-0.7202,-0.7203,-0.7203,-0.7274,-0.7276,-0.7279,-0.7291,0,0,-0.7287,-0.7288,0,0,0,0,0,0,0,0,-0.7048,-0.7054,-0.7117,-0.712,-0.7124,-0.7173,-0.7155,-0.7206,-0.7202,-0.7173,-0.7203,-0.7203,-0.7241,-0.7247,-0.7259,-0.7295,-0.7298,-0.7287,-0.7289,-0.729,-0.7291,0,0,0,0,0,0,0,-0.7044,-0.7051,-0.712,-0.7118,-0.7122,-0.7133,-0.714,-0.7165,-0.7205,-0.7176,-0.7179,-0.7186,-0.7243,-0.7256,-0.7261,-0.7299,-0.7287,-0.729,-0.7291,-0.7292,-0.7348,-0.7348,0,0,0,0,0,0,-0.7035,-0.7048,-0.7118,-0.7122,-0.7086,-0.7134,-0.7143,-0.7157,-0.7205,-0.7212,-0.7186,-0.7188,-0.7252,-0.7258,-0.7264,-0.7281,-0.729,-0.7293,-0.7294,-0.7348,-0.7348,-0.7348,0,0,0,0,0,0,-0.7033,-0.7041,-0.7115,-0.7086,-0.7096,-0.7136,-0.7152,-0.7159,-0.7172,-0.7213,-0.722,-0.7192,-0.7252,-0.726,-0.7284,-0.7284,-0.7294,-0.7296,-0.7348,-0.7348,-0.7348,-0.7316,0,0,0,0,0,0,-0.703,-0.704,-0.7045,-0.7086,-0.7098,-0.7134,-0.7152,-0.716,-0.7176,-0.7179,-0.722,-0.7227,-0.7253,-0.728,-0.7287,-0.7288,-0.7298,-0.7348,-0.7348,-0.7348,-0.7317,-0.7314,-0.7312,0,0,0,0,0,-0.7027,-0.7034,-0.7045,-0.7053,-0.7104,-0.7133,-0.714,-0.7169,-0.7176,-0.7181,-0.7207,-0.7226,-0.7283,-0.7282,-0.729,-0.7292,-0.7349,-0.7348,-0.7348,-0.7318,-0.7315,-0.7312,0,0,0,0,0,0,-0.6993,-0.704,-0.7053,-0.7073,-0.7099,-0.714,-0.7148,-0.7165,-0.719,-0.7192,-0.7227,-0.7236,-0.7256,-0.7277,-0.7275,-0.7306,-0.7318,-0.7319,-0.7292,-0.729,-0.7287,-0.7282,-0.7301,0,0,0,0,0,-0.6988,-0.7007,-0.7047,-0.7061,-0.7073,-0.7108,-0.7122,-0.7141,-0.717,-0.7182,-0.721,-0.7237,-0.7262,-0.7277,-0.7301,-0.732,-0.733,-0.7326,-0.7323,-0.7321,-0.7322,-0.7333,-0.7332,-0.7347,-0.7347,-0.7347,0,0,-0.6977,-0.7005,-0.7015,-0.7055,-0.7077,-0.7097,-0.7117,-0.7137,-0.7152,-0.7185,-0.7209,-0.723,-0.7264,-0.7285,-0.7296,-0.7303,-0.732,-0.7321,-0.7319,-0.7321,-0.7333,-0.7331,-0.733,-0.7346,-0.7347,-0.7347,0,0,-0.6968,-0.6991,-0.7005,-0.7027,-0.706,-0.7083,-0.7086,-0.7125,-0.714,-0.7164,-0.7189,-0.7208,-0.7249,-0.7272,-0.7289,-0.7287,-0.7305,-0.7294,-0.7282,-0.7293,-0.7292,-0.7291,-0.729,-0.729,-0.7295,-0.7295,-0.7295,0,-0.6951,-0.6981,-0.701,-0.7029,-0.7045,-0.7075,-0.7089,-0.7109,-0.7149,-0.716,-0.7167,-0.7219,-0.7243,-0.727,-0.727,-0.7282,-0.7288,-0.729,-0.7289,-0.7289,-0.7288,-0.7288,-0.7288,-0.7293,-0.7294,-0.7294,-0.7294,0,-0.6959,-0.6979,-0.6986,-0.7023,-0.704,-0.7057,-0.7089,-0.7103,-0.7121,-0.7143,-0.7168,-0.7198,-0.7229,-0.7237,-0.7256,-0.7267,-0.727,-0.7282,-0.7295,-0.7285,-0.7285,-0.7286,-0.7291,-0.7292,-0.7292,-0.7293,0,0,-0.6931,-0.6982,-0.6984,-0.7001,-0.704,-0.7056,-0.7074,-0.7103,-0.7115,-0.7142,-0.7158,-0.7191,-0.7203,-0.7222,-0.7243,-0.7252,-0.7249,-0.7264,-0.7265,-0.726,-0.7263,-0.7253,-0.7253,-0.7261,-0.7261,-0.7261,-0.726,0,-0.6927,-0.6959,-0.6986,-0.7008,-0.7028,-0.7055,-0.7071,-0.7097,-0.7118,-0.7138,-0.7162,-0.7185,-0.7199,-0.7211,-0.7221,-0.7247,-0.725,-0.7248,-0.7277,-0.7278,-0.7267,-0.7253,-0.7243,-0.724,-0.7261,-0.7261,-0.7261,0,-0.6927,-0.6951,-0.6975,-0.7011,-0.702,-0.7034,-0.7063,-0.7081,-0.7111,-0.7126,-0.7146,-0.7168,-0.7189,-0.7199,-0.7228,-0.7225,-0.7239,-0.7254,-0.7254,-0.7258,-0.7268,-0.7256,-0.724,-0.7239,-0.7261,-0.7261,-0.7261,0,-0.6904,-0.6943,-0.6962,-0.6975,-0.7018,-0.7027,-0.7045,-0.7075,-0.7091,-0.7116,-0.7127,-0.7155,-0.717,-0.7191,-0.722,-0.7225,-0.7246,-0.7259,-0.726,-0.7259,-0.7263,-0.7262,-0.7248,-0.7272,-0.7272,-0.7272,-0.7272,0,-0.6897,-0.6911,-0.6952,-0.6964,-0.698,-0.7011,-0.7026,-0.7047,-0.7073,-0.709,-0.7116,-0.7132,-0.7169,-0.7189,-0.7212,-0.7233,-0.7239,-0.7252,-0.7258,-0.725,-0.7248,-0.7259,-0.726,-0.7272,-0.7272,-0.7272,-0.7272,0,-0.6874,-0.6902,-0.6925,-0.6963,-0.6973,-0.6983,-0.7016,-0.7029,-0.7051,-0.7072,-0.7079,-0.7115,-0.714,-0.717,-0.7206,-0.7221,-0.724,-0.7249,-0.7229,-0.7232,-0.7232,-0.7231,-0.7224,-0.7225,-0.7247,-0.7247,-0.7247,0,-0.6868,-0.6879,-0.6918,-0.693,-0.6947,-0.6968,-0.6983,-0.7014,-0.7029,-0.7064,-0.7073,-0.7099,-0.7122,-0.7161,-0.7191,-0.7218,-0.7228,-0.7224,-0.7232,-0.7223,-0.7228,-0.7226,-0.7228,-0.7221,-0.7221,-0.7221,-0.722,0,-0.6854,-0.6867,-0.6888,-0.6914,-0.6932,-0.6954,-0.6977,-0.6987,-0.7022,-0.7038,-0.7063,-0.7081,-0.7117,-0.7143,-0.7174,-0.7194,-0.7213,-0.7217,-0.7219,-0.721,-0.7199,-0.7205,-0.7223,-0.7217,-0.7218,-0.7218,-0.7218,-0.7218,-0.684,-0.685,-0.6879,-0.6901,-0.6922,-0.6943,-0.6956,-0.698,-0.7001,-0.7032,-0.7049,-0.7073,-0.7103,-0.7146,-0.7165,-0.7185,-0.7193,-0.7195,-0.7196,-0.7196,-0.7193,-0.7195,-0.7191,-0.7191,-0.7192,-0.7192,-0.7192,0,-0.6827,-0.6846,-0.6866,-0.6898,-0.6915,-0.6931,-0.6957,-0.6971,-0.6992,-0.7018,-0.7039,-0.7068,-0.7094,-0.7125,-0.7153,-0.7163,-0.7173,-0.717,-0.7169,-0.7174,-0.7185,-0.7181,-0.7161,-0.7161,-0.7161,-0.7161,-0.7161,-0.7161,-0.6822,-0.6841,-0.6857,-0.6886,-0.6906,-0.693,-0.6943,-0.6963,-0.6983,-0.7014,-0.7035,-0.7055,-0.7083,-0.7112,-0.7137,-0.7145,-0.7155,-0.7148,-0.716,-0.717,-0.7173,-0.7175,-0.7171,-0.715,-0.715,-0.7146,-0.7146,-0.7146]},{"header":{"parameterUnit":"m.s-1","parameterCategory":1,"la1":30.2991,"la2":30.254,"lo1":-89.0895,"lo2":-89.0444,"dy":0.0017,"dx":0.0017,"nx":28,"ny":28,"refTime":"2025-01-25T09:00:00:Z","depth":0,"parameterNumber":3,"parameterNumberName":"V-component_of_WINDS"},"data":[0,0,0,0,0,0,0,0,0,0,0,0,0,0,0,0,0,0,0,0,0,0,0,0,0,0,0,0,0,0,0,0,0,0,0,0,0,0,0,0,0,0,0,0,0,0,0,0,0,0,0,0,0,0,0,0,0,0,2.8677,2.8678,0,2.8781,2.8783,2.8784,2.8784,2.8783,2.8782,2.878,2.8891,2.8895,2.8899,0,0,0,0,0,0,0,0,0,0,0,0,0,2.8479,2.8483,2.8676,2.8678,2.8679,2.8781,2.8783,2.8784,2.8784,2.8783,2.8781,2.878,2.889,2.8895,2.89,0,0,0,0,0,0,0,0,0,0,0,0,0,2.8573,2.8484,2.8676,2.8691,2.8694,2.8781,2.8783,2.8785,2.8785,2.8783,2.8781,2.8779,2.8888,2.8894,2.89,2.898,0,0,2.892,2.8923,0,0,0,0,0,0,0,0,2.8567,2.858,2.8688,2.8691,2.8693,2.8768,2.8754,2.885,2.8785,2.875,2.878,2.8778,2.8852,2.8861,2.8885,2.8986,2.899,2.892,2.8924,2.8927,2.8929,0,0,0,0,0,0,0,2.8561,2.8575,2.8718,2.869,2.8693,2.8694,2.8705,2.8772,2.8811,2.8753,2.8754,2.8766,2.8853,2.8879,2.8888,2.8992,2.892,2.8926,2.893,2.8932,2.9164,2.9166,0,0,0,0,0,0,2.8551,2.857,2.8715,2.8721,2.8624,2.8699,2.8712,2.8746,2.8811,2.8819,2.8767,2.8765,2.8869,2.8881,2.8892,2.8991,2.8927,2.8933,2.8936,2.9162,2.9165,2.9167,0,0,0,0,0,0,2.8547,2.8564,2.8711,2.8646,2.8664,2.8705,2.8743,2.8749,2.8775,2.8821,2.8829,2.8787,2.8868,2.8883,2.8958,2.8995,2.8936,2.8941,2.9159,2.9163,2.9166,2.9189,0,0,0,0,0,0,2.8541,2.8562,2.8592,2.8646,2.8668,2.8775,2.8746,2.8753,2.8786,2.8784,2.8841,2.8849,2.8868,2.8949,2.8965,2.9002,2.8946,2.9156,2.9161,2.9165,2.9185,2.9193,2.9199,0,0,0,0,0,2.8534,2.8595,2.8594,2.8611,2.8706,2.8777,2.8789,2.8808,2.8789,2.882,2.8849,2.8847,2.8988,2.8957,2.8974,2.9015,2.9154,2.9159,2.9165,2.9182,2.9191,2.9199,0,0,0,0,0,0,2.8546,2.8603,2.8602,2.8682,2.8724,2.8776,2.8817,2.8818,2.8867,2.8864,2.8886,2.8899,2.8975,2.9002,2.8966,2.9096,2.9069,2.9078,2.9076,2.9085,2.9092,2.9085,2.8952,0,0,0,0,0,2.8557,2.8609,2.8656,2.8722,2.8743,2.8776,2.8808,2.8819,2.8864,2.8882,2.8917,2.8962,2.9016,2.9052,2.9104,2.9188,2.9202,2.9225,2.9232,2.9237,2.9246,2.9293,2.9305,2.9185,2.9185,2.9185,0,0,2.8583,2.862,2.8651,2.8726,2.876,2.8814,2.8791,2.8849,2.889,2.8891,2.8965,2.8992,2.9044,2.9124,2.9161,2.9149,2.9281,2.9244,2.9248,2.9254,2.93,2.9311,2.9321,2.9188,2.9188,2.9187,0,0,2.8657,2.8689,2.8749,2.8783,2.8835,2.8856,2.887,2.8922,2.894,2.9013,2.9016,2.9065,2.9157,2.9194,2.9225,2.9312,2.9313,2.9329,2.9367,2.9413,2.9423,2.9431,2.9464,2.9475,2.9336,2.9336,2.9337,0,2.8683,2.8763,2.878,2.8838,2.8871,2.8873,2.8934,2.8967,2.9033,2.9057,2.9041,2.9158,2.9193,2.9282,2.9303,2.9328,2.9346,2.9323,2.942,2.9428,2.9437,2.9468,2.948,2.9338,2.9338,2.9338,2.9338,0,2.8792,2.8848,2.889,2.8953,2.899,2.905,2.9077,2.9113,2.912,2.9143,2.9219,2.926,2.9322,2.9343,2.9351,2.9435,2.9425,2.9414,2.9388,2.945,2.948,2.9492,2.9341,2.934,2.934,2.9339,0,0,2.8879,2.8949,2.8965,2.8994,2.905,2.9094,2.9153,2.9212,2.9244,2.9289,2.934,2.9418,2.9409,2.9444,2.9456,2.9496,2.9564,2.9481,2.9482,2.9496,2.966,2.967,2.9683,2.9564,2.9566,2.9568,2.9657,0,2.8961,2.9066,2.9082,2.9175,2.9227,2.9229,2.9282,2.9322,2.9345,2.9394,2.9419,2.9475,2.9457,2.9478,2.9518,2.9548,2.9598,2.9541,2.9614,2.9617,2.9603,2.9699,2.9709,2.9791,2.9668,2.967,2.9672,0,2.907,2.9118,2.9215,2.9265,2.9287,2.9334,2.9389,2.9435,2.9481,2.9495,2.9534,2.9541,2.9604,2.9573,2.9661,2.9622,2.9652,2.9671,2.9675,2.9685,2.9649,2.9713,2.9817,2.983,2.969,2.9689,2.9687,0,2.9126,2.9214,2.9284,2.9308,2.9367,2.94,2.9426,2.947,2.9505,2.9553,2.9576,2.9632,2.9663,2.9706,2.9728,2.9703,2.9815,2.9786,2.9831,2.983,2.9856,2.9855,2.9969,2.9872,2.9872,2.9871,2.9871,0,2.9217,2.9277,2.931,2.9353,2.9421,2.9439,2.9506,2.9532,2.9571,2.9621,2.9625,2.9672,2.9697,2.9748,2.9766,2.9837,2.985,2.9865,2.9869,2.9866,2.9864,2.9888,2.9883,2.9875,2.9874,2.9873,2.9873,0,2.9292,2.9316,2.9393,2.9441,2.9455,2.9503,2.9546,2.9589,2.961,2.9673,2.9688,2.9723,2.9783,2.9809,2.9883,2.9895,2.9977,2.9976,2.9961,2.9963,3.0007,3.0003,3.0142,3.0162,3.005,3.0051,3.0052,0,2.9349,2.9396,2.9449,2.9482,2.9509,2.9561,2.9596,2.9616,2.9652,2.9708,2.9745,2.9804,2.9853,2.9948,2.9981,3.0037,3.0039,3.0084,3.0048,3.0043,3.0043,3.0041,3.0046,3.0092,3.0093,3.0093,3.0094,0,2.945,2.9459,2.9508,2.9562,2.9603,2.9647,2.9689,2.9716,2.9742,2.9783,2.9843,2.9881,2.9955,3.0015,3.0073,3.0102,3.0104,3.0105,3.0119,3.0117,3.0107,3.0115,2.9981,3.0102,3.0101,3.0101,3.01,3.01,2.9519,2.9561,2.9605,2.966,2.9693,2.9733,2.9776,2.9802,2.9853,2.9914,2.9923,2.9988,3.0033,3.0112,3.0142,3.0194,3.0183,3.0202,3.0208,3.0213,3.0217,3.0096,3.0204,3.0204,3.0204,3.0204,3.0204,0,2.9622,2.965,2.97,2.9759,2.9802,2.9797,2.9844,2.9881,2.9938,2.9979,3.0027,3.0097,3.0154,3.0191,3.0249,3.0284,3.0286,3.0299,3.0298,3.0305,3.0222,3.0205,3.0296,3.0296,3.0296,3.0296,3.0296,3.0296,2.968,2.9751,2.9765,2.9852,2.988,2.9943,2.997,3.0007,3.0041,3.0118,3.0165,3.0188,3.0228,3.0289,3.0342,3.0352,3.0374,3.0388,3.0397,3.032,3.031,3.0301,3.0286,3.0392,3.0392,3.0475,3.0476,3.0477]}]]